Time,TemperatureF,DewpointF,PressureIn,WindDirection,WindDirectionDegrees,WindSpeedMPH,WindSpeedGustMPH,Humidity,HourlyPrecipIn,Conditions,Clouds,dailyrainin,SolarRadiationWatts/m^2,SoftwareType,DateUTC
2013-03-08 00:01:00,44.0,12.0,-100.00,South,180,2.0,6.0,27,0.00,,,0.00,0.000000,,2013-03-08 07:01:00,
2013-03-08 00:11:00,44.0,12.0,-100.00,South,180,2.0,6.0,27,0.00,,,0.00,0.000000,,2013-03-08 07:11:00,
2013-03-08 00:21:00,44.0,12.0,-100.00,South,180,2.0,6.0,27,0.00,,,0.00,0.000000,,2013-03-08 07:21:00,
2013-03-08 00:31:00,44.0,12.0,-100.00,South,180,2.0,6.0,27,0.00,,,0.00,0.000000,,2013-03-08 07:31:00,
2013-03-08 00:52:00,46.0,12.0,-100.00,SSE,162,8.0,16.0,25,0.00,,,0.00,0.000000,,2013-03-08 07:52:00,
2013-03-08 01:11:00,46.0,12.0,-100.00,SSE,162,8.0,16.0,25,0.00,,,0.00,0.000000,,2013-03-08 08:11:00,
2013-03-08 01:21:00,46.0,12.0,-100.00,SSE,162,8.0,16.0,25,0.00,,,0.00,0.000000,,2013-03-08 08:21:00,
2013-03-08 01:31:00,46.0,12.0,-100.00,SSE,162,8.0,16.0,25,0.00,,,0.00,0.000000,,2013-03-08 08:31:00,
2013-03-08 01:52:00,47.0,10.0,-100.00,South,175,13.0,23.0,22,-99.99,,,0.00,0.000000,,2013-03-08 08:52:00,
2013-03-08 02:02:00,47.0,10.0,-100.00,South,175,13.0,23.0,22,-99.99,,,0.00,0.000000,,2013-03-08 09:02:00,
2013-03-08 02:11:00,47.0,10.0,-100.00,South,175,13.0,23.0,22,-99.99,,,0.00,0.000000,,2013-03-08 09:11:00,
2013-03-08 02:21:00,47.0,10.0,-100.00,South,175,13.0,23.0,22,-99.99,,,0.00,0.000000,,2013-03-08 09:21:00,
2013-03-08 02:31:00,47.0,10.0,-100.00,South,175,13.0,23.0,22,-99.99,,,0.00,0.000000,,2013-03-08 09:31:00,
2013-03-08 02:52:00,46.0,9.0,-100.00,South,178,15.0,28.0,22,0.00,,,0.00,0.000000,,2013-03-08 09:52:00,
2013-03-08 03:11:00,46.0,9.0,-100.00,South,178,15.0,28.0,22,0.00,,,0.00,0.000000,,2013-03-08 10:11:00,
2013-03-08 03:21:00,46.0,9.0,-100.00,South,178,15.0,28.0,22,0.00,,,0.00,0.000000,,2013-03-08 10:21:00,
2013-03-08 03:31:00,46.0,9.0,-100.00,South,178,15.0,28.0,22,0.00,,,0.00,0.000000,,2013-03-08 10:31:00,
2013-03-08 03:52:00,45.0,10.0,-100.00,South,180,9.0,24.0,24,-99.99,,,0.00,0.000000,,2013-03-08 10:52:00,
2013-03-08 04:01:00,45.0,10.0,-100.00,South,180,9.0,24.0,24,-99.99,,,0.00,0.000000,,2013-03-08 11:01:00,
2013-03-08 04:11:00,45.0,10.0,-100.00,South,180,9.0,24.0,24,-99.99,,,0.00,0.000000,,2013-03-08 11:11:00,
2013-03-08 04:21:00,45.0,10.0,-100.00,South,180,9.0,24.0,24,-99.99,,,0.00,0.000000,,2013-03-08 11:21:00,
2013-03-08 04:32:00,45.0,10.0,-100.00,South,180,9.0,24.0,24,-99.99,,,0.00,0.000000,,2013-03-08 11:32:00,
2013-03-08 04:52:00,44.0,10.0,-100.00,South,176,9.0,19.0,25,0.00,,,0.00,0.000000,,2013-03-08 11:52:00,
2013-03-08 05:11:00,44.0,10.0,-100.00,South,176,9.0,19.0,25,0.00,,,0.00,0.000000,,2013-03-08 12:11:00,
2013-03-08 05:22:00,44.0,10.0,-100.00,South,176,9.0,19.0,25,0.00,,,0.00,0.000000,,2013-03-08 12:22:00,
2013-03-08 05:32:00,44.0,10.0,-100.00,South,176,9.0,19.0,25,0.00,,,0.00,0.000000,,2013-03-08 12:32:00,
2013-03-08 05:52:00,44.0,12.0,-100.00,South,177,11.0,21.0,27,-99.99,,,0.00,0.000000,,2013-03-08 12:52:00,
2013-03-08 06:01:00,44.0,12.0,-100.00,South,177,11.0,21.0,27,-99.99,,,0.00,0.000000,,2013-03-08 13:01:00,
2013-03-08 06:11:00,44.0,12.0,-100.00,South,177,11.0,21.0,27,-99.99,,,0.00,0.000000,,2013-03-08 13:11:00,
2013-03-08 06:21:00,44.0,12.0,-100.00,South,177,11.0,21.0,27,-99.99,,,0.00,0.000000,,2013-03-08 13:21:00,
2013-03-08 06:32:00,44.0,12.0,-100.00,South,177,11.0,21.0,27,-99.99,,,0.00,0.000000,,2013-03-08 13:32:00,
2013-03-08 06:52:00,43.0,12.0,-100.00,South,171,9.0,17.0,28,0.00,,,0.00,0.000000,,2013-03-08 13:52:00,
2013-03-08 07:11:00,43.0,12.0,-100.00,South,171,9.0,17.0,28,0.00,,,0.00,0.000000,,2013-03-08 14:11:00,
2013-03-08 07:22:00,43.0,12.0,-100.00,South,171,9.0,17.0,28,0.00,,,0.00,0.000000,,2013-03-08 14:22:00,
2013-03-08 07:32:00,43.0,12.0,-100.00,South,171,9.0,17.0,28,0.00,,,0.00,0.000000,,2013-03-08 14:32:00,
2013-03-08 07:52:00,43.0,13.0,-100.00,South,178,9.0,19.0,29,0.00,,,0.00,17.000000,,2013-03-08 14:52:00,
2013-03-08 08:02:00,43.0,13.0,-100.00,South,178,9.0,19.0,29,0.00,,,0.00,17.000000,,2013-03-08 15:02:00,
2013-03-08 08:11:00,43.0,13.0,-100.00,South,178,9.0,19.0,29,0.00,,,0.00,17.000000,,2013-03-08 15:11:00,
2013-03-08 08:21:00,43.0,13.0,-100.00,South,178,9.0,19.0,29,0.00,,,0.00,17.000000,,2013-03-08 15:21:00,
2013-03-08 08:31:00,43.0,13.0,-100.00,South,178,9.0,19.0,29,0.00,,,0.00,17.000000,,2013-03-08 15:31:00,
2013-03-08 08:53:00,44.0,15.0,-100.00,South,175,8.0,18.0,30,0.00,,,0.00,88.000000,,2013-03-08 15:53:00,
2013-03-08 09:01:00,44.0,15.0,-100.00,South,175,8.0,18.0,30,0.00,,,0.00,88.000000,,2013-03-08 16:01:00,
2013-03-08 09:11:00,44.0,15.0,-100.00,South,175,8.0,18.0,30,0.00,,,0.00,88.000000,,2013-03-08 16:11:00,
2013-03-08 09:21:00,44.0,15.0,-100.00,South,175,8.0,18.0,30,0.00,,,0.00,88.000000,,2013-03-08 16:21:00,
2013-03-08 09:31:00,44.0,15.0,-100.00,South,175,8.0,18.0,30,0.00,,,0.00,88.000000,,2013-03-08 16:31:00,
2013-03-08 09:52:00,45.0,15.0,-100.00,South,174,10.0,17.0,30,0.00,,,0.00,174.000000,,2013-03-08 16:52:00,
2013-03-08 10:02:00,45.0,15.0,-100.00,South,174,10.0,17.0,30,0.00,,,0.00,174.000000,,2013-03-08 17:02:00,
2013-03-08 10:11:00,45.0,15.0,-100.00,South,174,10.0,17.0,30,0.00,,,0.00,174.000000,,2013-03-08 17:11:00,
2013-03-08 10:21:00,45.0,15.0,-100.00,South,174,10.0,17.0,30,0.00,,,0.00,174.000000,,2013-03-08 17:21:00,
2013-03-08 10:31:00,45.0,15.0,-100.00,South,174,10.0,17.0,30,0.00,,,0.00,174.000000,,2013-03-08 17:31:00,
2013-03-08 10:52:00,46.0,17.0,-100.00,SSW,202,4.0,17.0,31,0.00,,,0.00,232.000000,,2013-03-08 17:52:00,
2013-03-08 11:01:00,46.0,17.0,-100.00,SSW,202,4.0,17.0,31,0.00,,,0.00,232.000000,,2013-03-08 18:01:00,
2013-03-08 11:11:00,46.0,17.0,-100.00,SSW,202,4.0,17.0,31,0.00,,,0.00,232.000000,,2013-03-08 18:11:00,
2013-03-08 11:21:00,46.0,17.0,-100.00,SSW,202,4.0,17.0,31,0.00,,,0.00,232.000000,,2013-03-08 18:21:00,
2013-03-08 11:31:00,46.0,17.0,-100.00,SSW,202,4.0,17.0,31,0.00,,,0.00,232.000000,,2013-03-08 18:31:00,
2013-03-08 11:52:00,45.0,20.0,-100.00,SSW,194,5.0,15.0,37,0.00,,,0.00,195.000000,,2013-03-08 18:52:00,
2013-03-08 12:01:00,45.0,20.0,-100.00,SSW,194,5.0,15.0,37,0.00,,,0.00,195.000000,,2013-03-08 19:01:00,
2013-03-08 12:11:00,45.0,20.0,-100.00,SSW,194,5.0,15.0,37,0.00,,,0.00,195.000000,,2013-03-08 19:11:00,
2013-03-08 12:21:00,45.0,20.0,-100.00,SSW,194,5.0,15.0,37,0.00,,,0.00,195.000000,,2013-03-08 19:21:00,
2013-03-08 12:31:00,45.0,20.0,-100.00,SSW,194,5.0,15.0,37,0.00,,,0.00,195.000000,,2013-03-08 19:31:00,
2013-03-08 12:52:00,46.0,22.0,-100.00,SSE,166,6.0,17.0,38,0.00,,,0.00,330.000000,,2013-03-08 19:52:00,
2013-03-08 13:01:00,46.0,22.0,-100.00,SSE,166,6.0,17.0,38,0.00,,,0.00,330.000000,,2013-03-08 20:01:00,
2013-03-08 13:11:00,46.0,22.0,-100.00,SSE,166,6.0,17.0,38,0.00,,,0.00,330.000000,,2013-03-08 20:11:00,
2013-03-08 13:21:00,46.0,22.0,-100.00,SSE,166,6.0,17.0,38,0.00,,,0.00,330.000000,,2013-03-08 20:21:00,
2013-03-08 13:31:00,46.0,22.0,-100.00,SSE,166,6.0,17.0,38,0.00,,,0.00,330.000000,,2013-03-08 20:31:00,
2013-03-08 13:53:00,41.0,26.0,-100.00,WSW,252,12.0,22.0,54,0.00,,,-99.99,286.000000,,2013-03-08 20:53:00,
2013-03-08 14:01:00,41.0,26.0,-100.00,WSW,252,12.0,22.0,54,0.00,,,-99.99,286.000000,,2013-03-08 21:01:00,
2013-03-08 14:11:00,41.0,26.0,-100.00,WSW,252,12.0,22.0,54,0.00,,,-99.99,286.000000,,2013-03-08 21:11:00,
2013-03-08 14:21:00,41.0,26.0,-100.00,WSW,252,12.0,22.0,54,0.00,,,-99.99,286.000000,,2013-03-08 21:21:00,
2013-03-08 14:32:00,41.0,26.0,-100.00,WSW,252,12.0,22.0,54,0.00,,,-99.99,286.000000,,2013-03-08 21:32:00,
2013-03-08 14:52:00,36.0,33.0,-100.00,West,281,7.0,19.0,88,0.00,,,-99.99,171.000000,,2013-03-08 21:52:00,
2013-03-08 15:01:00,36.0,33.0,-100.00,West,281,7.0,19.0,88,0.00,,,-99.99,171.000000,,2013-03-08 22:01:00,
2013-03-08 15:11:00,36.0,33.0,-100.00,West,281,7.0,19.0,88,0.00,,,-99.99,171.000000,,2013-03-08 22:11:00,
2013-03-08 15:21:00,36.0,33.0,-100.00,West,281,7.0,19.0,88,0.00,,,-99.99,171.000000,,2013-03-08 22:21:00,
2013-03-08 15:32:00,36.0,33.0,-100.00,West,281,7.0,19.0,88,0.00,,,-99.99,171.000000,,2013-03-08 22:32:00,
2013-03-08 15:52:00,35.0,33.0,-100.00,WSW,239,2.0,9.0,92,0.03,,,0.03,111.000000,,2013-03-08 22:52:00,
2013-03-08 16:01:00,35.0,33.0,-100.00,WSW,239,2.0,9.0,92,0.03,,,0.03,111.000000,,2013-03-08 23:01:00,
2013-03-08 16:11:00,35.0,33.0,-100.00,WSW,239,2.0,9.0,92,0.03,,,0.03,111.000000,,2013-03-08 23:11:00,
2013-03-08 16:21:00,35.0,33.0,-100.00,WSW,239,2.0,9.0,92,0.03,,,0.03,111.000000,,2013-03-08 23:21:00,
2013-03-08 16:31:00,35.0,33.0,-100.00,WSW,239,2.0,9.0,92,0.03,,,0.03,111.000000,,2013-03-08 23:31:00,
2013-03-08 16:53:00,35.0,33.0,-100.00,North,355,1.0,3.0,93,0.02,,,0.05,103.000000,,2013-03-08 23:53:00,
2013-03-08 17:01:00,35.0,33.0,-100.00,North,355,1.0,3.0,93,0.02,,,0.05,103.000000,,2013-03-09 00:01:00,
2013-03-08 17:11:00,35.0,33.0,-100.00,North,355,1.0,3.0,93,0.02,,,0.05,103.000000,,2013-03-09 00:11:00,
2013-03-08 17:21:00,35.0,33.0,-100.00,North,355,1.0,3.0,93,0.02,,,0.05,103.000000,,2013-03-09 00:21:00,
2013-03-08 17:31:00,35.0,33.0,-100.00,North,355,1.0,3.0,93,0.02,,,0.05,103.000000,,2013-03-09 00:31:00,
2013-03-08 17:52:00,35.0,34.0,-100.00,North,11,4.0,6.0,95,0.01,,,0.06,72.000000,,2013-03-09 00:52:00,
2013-03-08 18:01:00,35.0,34.0,-100.00,North,11,4.0,6.0,95,0.01,,,0.06,72.000000,,2013-03-09 01:01:00,
2013-03-08 18:12:00,35.0,34.0,-100.00,North,11,4.0,6.0,95,0.01,,,0.06,72.000000,,2013-03-09 01:12:00,
2013-03-08 18:21:00,35.0,34.0,-100.00,North,11,4.0,6.0,95,0.01,,,0.06,72.000000,,2013-03-09 01:21:00,
2013-03-08 18:31:00,35.0,34.0,-100.00,North,11,4.0,6.0,95,0.01,,,0.06,72.000000,,2013-03-09 01:31:00,
2013-03-08 20:52:00,34.0,33.0,-100.00,NE,47,2.0,8.0,96,-99.99,,,0.06,0.000000,,2013-03-09 03:52:00,
2013-03-08 21:01:00,34.0,33.0,-100.00,NE,47,2.0,8.0,96,-99.99,,,0.06,0.000000,,2013-03-09 04:01:00,
2013-03-08 21:11:00,34.0,33.0,-100.00,NE,47,2.0,8.0,96,-99.99,,,0.06,0.000000,,2013-03-09 04:11:00,
2013-03-08 21:22:00,34.0,33.0,-100.00,NE,47,2.0,8.0,96,-99.99,,,0.06,0.000000,,2013-03-09 04:22:00,
2013-03-08 21:31:00,34.0,33.0,-100.00,NE,47,2.0,8.0,96,-99.99,,,0.06,0.000000,,2013-03-09 04:31:00,
2013-03-08 21:52:00,34.0,33.0,-100.00,ENE,62,1.0,5.0,97,0.00,,,0.06,0.000000,,2013-03-09 04:52:00,
2013-03-08 22:02:00,34.0,33.0,-100.00,ENE,62,1.0,5.0,97,0.00,,,0.06,0.000000,,2013-03-09 05:02:00,
2013-03-08 22:11:00,34.0,33.0,-100.00,ENE,62,1.0,5.0,97,0.00,,,0.06,0.000000,,2013-03-09 05:11:00,
2013-03-08 22:21:00,34.0,33.0,-100.00,ENE,62,1.0,5.0,97,0.00,,,0.06,0.000000,,2013-03-09 05:21:00,
2013-03-08 22:31:00,34.0,33.0,-100.00,ENE,62,1.0,5.0,97,0.00,,,0.06,0.000000,,2013-03-09 05:31:00,
2013-03-08 22:53:00,35.0,32.0,-100.00,South,177,3.0,8.0,88,0.00,,,0.06,0.000000,,2013-03-09 05:53:00,
2013-03-08 23:01:00,35.0,32.0,-100.00,South,177,3.0,8.0,88,0.00,,,0.06,0.000000,,2013-03-09 06:01:00,
2013-03-08 23:11:00,35.0,32.0,-100.00,South,177,3.0,8.0,88,0.00,,,0.06,0.000000,,2013-03-09 06:11:00,
2013-03-08 23:22:00,35.0,32.0,-100.00,South,177,3.0,8.0,88,0.00,,,0.06,0.000000,,2013-03-09 06:22:00,
2013-03-08 23:31:00,35.0,32.0,-100.00,South,177,3.0,8.0,88,0.00,,,0.06,0.000000,,2013-03-09 06:31:00,
2013-03-08 23:52:00,35.0,29.0,-100.00,SE,126,4.0,11.0,80,0.00,,,0.06,0.000000,,2013-03-09 06:52:00,